Location: Long Barn
(38.0930°N, 120.1344°W)
Time: 13:06:31
(UTC+00:00)

BlueWalker 3 - Pass Details

Date: 05 August 2024
Orbit: 475 x 487 km, 53.2° (Epoch: 15 September)

Event Time Altitude Azimuth Distance (km) Brightness Sun altitude
Exits shadow 12:08:47 12° 271° (W) 1,540 3.9 -11.1°
Maximum altitude 12:11:40 28° 328° (NNW) 957 3.3 -10.6°
Drops below altitude 10° 12:15:00 10° 29° (NNE) 1,690 5.6 -10.1°
Sets 12:17:25 0° 41° (NE) 2,575 7.1 -9.6°
